www.pogodaiklimat.ru

Погода и климат >> Архив погоды >> Россия >> Ханты-Мансийский АО >> Няксимволь


АРХИВ ПОГОДЫ в Няксимволе

Время (UTC), дата Ветер
(напр.,м/с)
 
Видим.   Явления Облачность Т
(С)
Тd
(С)
f
(%)
Тe
(С)
Тes
(С)
Комфортность P
(гПа)
Po
(гПа)
Тmin
(С)
Tmax
(С)
R
(мм)
R24
(мм)
S
(см)
00 17.01 Ю 4 20 км слаб. снег 10/0
[As trans]
-5.4 -6.6 91 -12 -12 1003.0 996.5
03 17.01 Ю 4 20 км 10/0
[As trans]
-3.6 -5.4 87 -10 -10 999.0 992.6 -13.0 2 45
06 17.01 Ю 4 50 км 10/0
[Ac As]
-3.3 -5.2 87 -9 -9 997.2 990.8
09 17.01 Ю 4 50 км 10/0
[As op]
-2.6 -4.4 87 -9 -9 997.2 990.8
12 17.01 Ю 3 20 км 10/5 1000 м
[Sc Ac As]
-2.9 -4.5 89 -8 -8 996.7 990.3
15 17.01 Ю 3 20 км 10/10 1000 м
[Sc]
-3.0 -4.7 88 -8 -8 996.1 989.7 -2.5
18 17.01 Ю 2 20 км 10/10 1000 м
[Sc]
-4.0 -5.8 87 -8 -8 996.0 989.6
21 17.01 ЮЗ 4 20 км 8/0
[Ac As Ci fib]
-5.7 -9.6 74 -12 -12 997.1 990.7
00 18.01 Ю 2 20 км 8/0
[Ac As Cs]
-7.5 -10.6 78 -12 -12 997.6 991.1
03 18.01 Ю 2 20 км 10/10 1000 м
[Sc]
-7.8 -10.5 81 -12 -12 997.6 991.1 -8.7 45
06 18.01 Ю 4 50 км 10/10 1000 м
[Sc]
-6.4 -9.9 76 -13 -13 997.0 990.5
09 18.01 Ю 4 50 км 10/0
[As op]
-6.4 -10.0 76 -13 -13 995.9 989.4
12 18.01 Ю 3 20 км слаб. снег 10/0
[As op]
-7.2 -9.6 83 -13 -13 994.4 987.9
15 18.01 Ю 2 20 км слаб. снег 10/0
[As op]
-7.4 -9.0 88 -12 -12 993.3 986.9 -6.3 0.6
18 18.01 Ю 3 20 км слаб. снег 10/0
[As op]
-7.0 -7.8 94 -13 -13 993.3 986.9
21 18.01 Ю 2 20 км {снег} 10/0
[As op]
-7.5 -8.7 91 -12 -12 994.5 988.1
00 19.01 Ю 1 20 км 10/10 1000 м
[Sc]
-6.8 -7.9 92 -9 -9 995.5 989.1
03 19.01 Ю 3 20 км 10/10 1000 м
[Sc]
-6.5 -7.8 90 -12 -12 996.7 990.2 -7.8 0.8 46
06 19.01 Ю 2 50 км 6/4 1000 м
[Sc Ci fib]
-6.8 -7.4 95 -11 -11 998.8 992.3 -7.3
09 19.01 Ю 1 50 км 8/0
[As op Cs]
-8.0 -8.9 93 -10 -10 999.7 993.2
12 19.01 В 1 20 км слаб. снег 10/0
[As op]
-7.1 -7.9 94 -10 -10 1000.3 993.8
15 19.01 СВ 2 20 км снег 10/0
[As op]
-7.0 -7.7 95 -12 -12 1000.6 994.1 -6.0 2
18 19.01 СЗ 2 20 км слаб. снег 10/0
[As op]
-8.6 -9.6 92 -13 -13 1003.2 996.6
21 19.01 СЗ 2 20 км слаб. снег 10/0
[As trans]
-12.0 -13.1 91 -17 -17 1005.6 998.9
00 20.01 СЗ 1 20 км слаб. снег 10/0
[As trans]
-13.8 -15.1 90 -16 -16 1006.8 1000.1
03 20.01 В 2 20 км слаб. снег 10/0
[As op]
-13.8 -15.3 88 -19 -19 1007.3 1000.5 -14.1 2 48
06 20.01 В 1 50 км слаб. снег 10/0
[As op]
-14.0 -15.5 88 -16 -16 1008.1 1001.4 -14.3
09 20.01 штиль 0 50 км слаб. снег 10/0
[As op Cs]
-12.0 -13.9 86 -12 -12 1008.3 1001.6
12 20.01 штиль 0 20 км {снег} 8/0
[As op Cs]
-16.0 -17.4 89 -16 -16 1008.4 1001.6
15 20.01 штиль 0 20 км 3/0
[As op]
-21.3 -23.1 85 -21 -21 1008.1 1001.2 -12.0 0.6
18 20.01 ЮЗ 1 20 км ясно -24.6 -26.9 81 -28 -28 1008.1 1001.1
21 20.01 Ю 1 20 км ясно -24.5 -27.0 80 -28 -28 1008.2 1001.2
00 21.01 штиль 0 20 км ясно -25.7 -28.3 79 -26 -26 1008.3 1001.2
03 21.01 штиль 0 20 км ясно -25.2 -27.8 79 -25 -25 1007.6 1000.6 -25.7 50
06 21.01 штиль 0 50 км 3/0
[Cs]
-27.1 -29.8 78 -27 -27 1006.9 999.8 -27.3
09 21.01 В 1 50 км 8/0
[Ac As Cs]
-24.3 -26.8 80 -28 -28 1005.9 998.9
12 21.01 СВ 2 20 км слаб. снег 10/0
[As op]
-21.9 -24.1 82 -28 -28 1005.1 998.2
15 21.01 штиль 0 20 км {снег} 3/0
[As trans]
-24.0 -26.5 80 -24 -24 1004.3 997.3 -21.7 0.3
18 21.01 СВ 1 20 км {снег} 10/0
[Ci fib]
-25.0 -27.6 79 -29 -29 1004.0 997.0
21 21.01 В 2 20 км 10/0
[Ci fib]
-21.8 -24.0 82 -28 -28 1003.3 996.4
00 22.01 В 2 20 км 10/0
[Ci fib]
-20.1 -22.1 84 -26 -26 1002.4 995.6
03 22.01 В 1 20 км 9/0
[Ci fib]
-22.4 -24.6 82 -26 -26 1002.4 995.5 -26.4 50
06 22.01 СВ 2 50 км 9/0
[As trans Ci]
-22.4 -24.7 81 -29 -29 1002.8 995.9
09 22.01 Ю 1 50 км 10/0
[As trans]
-17.2 -18.9 87 -20 -20 1003.2 996.4
12 22.01 В 1 20 км 10/0
[As trans]
-17.1 -18.8 87 -20 -20 1003.6 996.8
15 22.01 штиль 0 20 км 10/0
[As trans]
-17.7 -19.5 86 -18 -18 1004.2 997.4 -17.0
18 22.01 ЮЗ 1 20 км 3/0
[As trans]
-21.2 -23.2 84 -24 -24 1005.0 998.1
21 22.01 Ю 1 20 км 6/0
[Ci]
-21.2 -23.3 83 -24 -24 1006.1 999.2
00 23.01 Ю 1 20 км 10/0
[Cs]
-20.2 -22.2 84 -23 -23 1006.9 1000.0
03 23.01 Ю 2 20 км 10/0
[As trans]
-16.3 -18.0 87 -22 -22 1007.5 1000.7 -21.5 50
06 23.01 ЮЗ 1 50 км слаб. снег 10/0
[As op]
-15.7 -17.3 87 -18 -18 1008.6 1001.8
09 23.01 ЮЗ 2 50 км слаб. снег 10/0
[As op Ci fib]
-15.1 -17.0 85 -20 -20 1010.1 1003.3
12 23.01 ЮЗ 2 20 км {снег} 10/0
[As op]
-16.4 -19.1 80 -22 -22 1012.0 1005.2
15 23.01 ЮЗ 1 20 км 4/0
[Cs]
-18.6 -20.6 84 -21 -21 1013.9 1007.0 -14.9 0.7
18 23.01 Ю 1 20 км 4/0
[Cs]
-20.6 -22.8 82 -24 -24 1015.2 1008.2

 

Местоположение метеостанции Няксимволь (Ханты-Мансийский АО, Россия): широта 62.43 долгота 60.87 высота над уровнем моря 51 м.

В архиве по умолчанию представлена погода в Няксимволе за последнюю неделю. Архивные данные за месяц целиком и за предыдущие месяцы, начиная с января 2011 года, Вы можете получить, выбрав интересующий диапазон дат из раскрывающегося списка и нажав кнопку "Ввод!".


*Определитесь, кто Вы:
робот инопланетянин человек

Внимание! Время в таблицах - всемирное. Для получения местного времени необходимо прибавить поправку, которая равна 5 ч.

Смотрите также архив погоды в соседних городах и на ближайших метеорологических станциях:

Погода в Приполярном (Ханты-Мансийский АО, Россия) (101 км)
Погода в Агирише (Ханты-Мансийский АО, Россия) (125 км)
Погода в Бурмантово (Свердловская область, Россия) (130 км)
Погода в Сосьве (Ханты-Мансийский АО, Россия) (149 км)
Погода в Атымье (Свердловская область, Россия) (171 км)
Погода в Югорске (Ханты-Мансийский АО, Россия) (182 км)
Погода в Ивделе (Свердловская область, Россия) (196 км)
Погода в Игриме (Ханты-Мансийский АО, Россия) (201 км)
Погода в Саранпауле (Ханты-Мансийский АО, Россия) (206 км)
Погода в Вонъегане (Ханты-Мансийский АО, Россия) (216 км)

Пояснения к столбцам:

Ветер - указаны скорость ветра в м/с - средняя за 10 мин, порывы в срок и между сроками (в фигурных скобках) и направление, откуда дует ветер: С - северный, СВ - северо-восточный, В - восточный, ЮВ - юго-восточный, Ю - южный, ЮЗ - юго-западный, З - западный, СЗ - северо-западный.
Видимость - горизонтальная дальность видимости в метрах или километрах. При видимости от 1 до 10 км при отсутствии осадков обычно наблюдается дымка, при ухудшении видимости до 1 км и менее - туман. В сухую погоду видимость может ухудшаться дымом, пылью или мглою.
Явления - указаны атмосферные явления, наблюдавшиеся в срок или в последний час перед сроком; фигурными скобками обозначены явления, наблюдавшиеся между сроками (за 1-3 часа до срока); квадратными скобками обозначены град или гололедные отложения с указанием их диаметра в мм.
Облачность - указаны через наклонную черту общая и нижняя облачность в баллах и высота нижней границы облаков в метрах; квадратными скобками обозначены формы облаков: Ci - перистые, Cs - перисто-слоистые, Cc - перисто-кучевые, Ac - высококучевые, As - высокослоистые, Sc - слоисто-кучевые, Ns - слоисто-дождевые, Cu - кучевые, Cb - кучево-дождевые. Подробнее классификацию облаков см. в Атласе облаков (PDF).
T - Температура воздуха - температура, измеренная на высоте 2 м над землей.
Td - Температура точки росы - температура, при понижении до которой содержащийся в воздухе водяной пар достигнет насыщения.
f - Относительная влажность воздуха - влажноcть воздуха, измеренная на высоте 2 м над землей.
Te - Эффективная температура - температура, которую ощущает одетый по сезону человек в тени. Характеристика душности погоды. При расчете учитывается влияние влажности воздуха и скорости ветра на теплоощущения человека.
Tes - Эффективная температура на солнце - температура, которую ощущает человек, с поправкой на солнечный нагрев. Характеристика знойности погоды. Зависит от высоты солнца над горизонтом, облачности и скорости ветра. Ночью, в пасмурную погоду, а также при ветре 12 м/с и более поправка равна нулю.
P - Атмосферное давление - приведенное к уровню моря атмосферное давление.
Po - Атмосферное давление - измеренное на уровне метеостанции атмосферное давление.
Tmin - Минимальная температура - минимум температуры воздуха на высоте 2 м над землей.
Tmax - Максимальная температура - максимум температуры воздуха на высоте 2 м над землей.
R - Количество осадков - Количество выпавших осадков за период времени, мм. При наведении курсора мыши на число - период времени, за который выпало указанное количество осадков.
R24 - Количество осадков - Количество выпавших осадков за 24 часа, мм.
S - Снежный покров - Высота снежного покрова, см. При наведении курсора мыши на число - состояние снежного покрова и степень покрытия местности в баллах.